Track FLOCK 1C 1 now! 10-day predictions FLOCK 1C 1 is classified as:
1 40027U 14033T 21025.45007483 .00000752 00000-0 82931-4 0 9996 2 40027 97.9573 322.0754 0011202 288.4753 71.5247 14.90499580358248